Hartsville, SC

3:58 AM EST on December 07, 2016 (GMT -0500)
Hartsville Regional

Weather History for KHVS - April, 2013

Change the Weather History Date:

Tuesday, April 16, 2013

  Actual Average (KFLO) Record (KFLO)
Temperature  
Mean Temperature 71 °F 63 °F  
Max Temperature 82 °F 76 °F 90 °F (1967)
Min Temperature 60 °F 51 °F 32 °F (1950)
Degree Days  
Heating Degree Days 0 4  
Month to date heating degree days 84  
Since 1 July heating degree days 2460  
Cooling Degree Days 6 2  
Month to date cooling degree days 29  
Year to date cooling degree days 53  
Growing Degree Days 21 (Base 50)    
Moisture  
Dew Point 59 °F    
Average Humidity 73    
Maximum Humidity 100    
Minimum Humidity 35    
Precipitation  
Precipitation 0.00 in 0.08 in 1.76 in (1958)
Month to date precipitation 1.38  
Year to date precipitation 10.86  
Sea Level Pressure  
Sea Level Pressure 30.24 in    
Wind  
Wind Speed 0 mph (ENE)    
Max Wind Speed 7 mph    
Max Gust Speed -    
Visibility 8 miles    
Events      
T = Trace of Precipitation, MM = Missing Value Source: NWS Daily Summary

Daily Weather History Graph

Daily Weather History Graph

Search for Another Location

Airport or City:

Trip Planner

Search our weather history database for the weather conditions in past years. The results will help you decide how hot, cold, wet, or windy it might be!

Date:

Astronomy

Apr. 16, 2013 Rise Set
Actual Time 6:47 AM EDT 7:53 PM EDT
Civil Twilight 6:21 AM EDT 8:19 PM EDT
Nautical Twilight 5:50 AM EDT 8:50 PM EDT
Astronomical Twilight 5:19 AM EDT 9:22 PM EDT
Moon 11:11 AM EDT (4/16) 12:42 AM EDT (4/16)
Length of Visible Light 13h 57m
Length of Day
13h 05m
Waxing Crescent, 33% of the Moon is Illuminated
Apr 16
Waxing Crescent
Apr 18
First Quarter
Apr 25
Full
May 2
Last Quarter
May 9
New

Hourly Weather History & Observations

Time (EDT) Temp. Heat Index Dew Point Humidity Pressure Visibility Wind Dir Wind Speed Gust Speed Precip Events Conditions
12:15 AM 62.6 °F - 62.6 °F 100% 30.20 in 10.0 mi Calm Calm - N/A   Scattered Clouds
12:35 AM 62.6 °F - 62.6 °F 100% 30.20 in 7.0 mi Calm Calm - N/A   Mostly Cloudy
12:55 AM 62.6 °F - 62.6 °F 100% 30.20 in 10.0 mi Calm Calm - N/A   Mostly Cloudy
1:15 AM 62.6 °F - 62.6 °F 100% 30.21 in 7.0 mi Calm Calm - N/A   Mostly Cloudy
1:35 AM 62.6 °F - 62.6 °F 100% 30.21 in 7.0 mi Calm Calm - N/A   Mostly Cloudy
1:55 AM 60.8 °F - 60.8 °F 100% 30.21 in 4.0 mi Calm Calm - N/A   Mostly Cloudy
2:15 AM 60.8 °F - 60.8 °F 100% 30.20 in 7.0 mi Calm Calm - N/A   Scattered Clouds
2:35 AM 60.8 °F - 60.8 °F 100% 30.20 in 7.0 mi Calm Calm - N/A   Mostly Cloudy
2:55 AM 60.8 °F - 60.8 °F 100% 30.20 in 4.0 mi Calm Calm - N/A   Scattered Clouds
3:15 AM 60.8 °F - 60.8 °F 100% 30.21 in 5.0 mi Calm Calm - N/A   Scattered Clouds
3:35 AM 60.8 °F - 60.8 °F 100% 30.21 in 7.0 mi Calm Calm - N/A   Overcast
3:55 AM 60.8 °F - 60.8 °F 100% 30.21 in 7.0 mi Calm Calm - N/A   Overcast
4:15 AM 62.6 °F - 62.6 °F 100% 30.21 in 7.0 mi Calm Calm - N/A   Overcast
4:35 AM 62.6 °F - 62.6 °F 100% 30.21 in 7.0 mi Calm Calm - N/A   Overcast
4:55 AM 60.8 °F - 60.8 °F 100% 30.21 in 5.0 mi Calm Calm - N/A   Overcast
5:15 AM 60.8 °F - 60.8 °F 100% 30.21 in 5.0 mi Calm Calm - N/A   Mostly Cloudy
5:35 AM 60.8 °F - 60.8 °F 100% 30.22 in 7.0 mi Calm Calm - N/A   Overcast
5:55 AM 60.8 °F - 60.8 °F 100% 30.22 in 5.0 mi Calm Calm - N/A   Mostly Cloudy
6:15 AM 60.8 °F - 60.8 °F 100% 30.23 in 5.0 mi Calm Calm - N/A   Scattered Clouds
6:35 AM 60.8 °F - 60.8 °F 100% 30.23 in 3.0 mi Calm Calm - N/A   Unknown
6:55 AM 60.8 °F - 60.8 °F 100% 30.23 in 3.0 mi Calm Calm - N/A   Unknown
7:15 AM 60.8 °F - 60.8 °F 100% 30.24 in 1.8 mi Calm Calm - N/A   Unknown
7:35 AM 60.8 °F - 60.8 °F 100% 30.25 in 2.5 mi Calm Calm - N/A   Clear
7:55 AM 62.6 °F - 62.6 °F 100% 30.25 in 4.0 mi Calm Calm - N/A   Clear
8:15 AM 62.6 °F - 62.6 °F 100% 30.26 in 5.0 mi Calm Calm - N/A   Clear
8:35 AM 64.4 °F - 64.4 °F 100% 30.26 in 7.0 mi Calm Calm - N/A   Clear
8:55 AM 64.4 °F - 64.4 °F 100% 30.27 in 7.0 mi Calm Calm - N/A   Clear
9:15 AM 68.0 °F - 62.6 °F 83% 30.27 in 7.0 mi Calm Calm - N/A   Clear
9:35 AM 68.0 °F - 62.6 °F 83% 30.28 in 10.0 mi Calm Calm - N/A   Clear
9:55 AM 69.8 °F - 60.8 °F 73% 30.28 in 7.0 mi Calm Calm - N/A   Clear
10:15 AM 71.6 °F - 60.8 °F 69% 30.28 in 7.0 mi Calm Calm - N/A   Clear
10:35 AM 71.6 °F - 60.8 °F 69% 30.28 in 7.0 mi Calm Calm - N/A   Clear
10:55 AM 73.4 °F - 59.0 °F 61% 30.29 in 10.0 mi ENE 4.6 mph - N/A   Scattered Clouds
11:15 AM 73.4 °F - 59.0 °F 61% 30.29 in 10.0 mi Calm Calm - N/A   Scattered Clouds
11:35 AM 73.4 °F - 59.0 °F 61% 30.29 in 10.0 mi Calm Calm - N/A   Scattered Clouds
11:55 AM 75.2 °F - 59.0 °F 57% 30.29 in 7.0 mi Calm Calm - N/A   Scattered Clouds
12:15 PM 75.2 °F - 55.4 °F 50% 30.29 in 10.0 mi Calm Calm - N/A   Scattered Clouds
12:35 PM 77.0 °F - 55.4 °F 47% 30.29 in 10.0 mi Calm Calm - N/A   Scattered Clouds
12:55 PM 77.0 °F - 55.4 °F 47% 30.29 in 10.0 mi Calm Calm - N/A   Overcast
1:15 PM 77.0 °F - 53.6 °F 44% 30.28 in 10.0 mi Calm Calm - N/A   Overcast
1:35 PM 77.0 °F - 53.6 °F 44% 30.28 in 10.0 mi Calm Calm - N/A   Overcast
1:55 PM 77.0 °F - 53.6 °F 44% 30.27 in 10.0 mi Calm Calm - N/A   Overcast
2:15 PM 77.0 °F - 53.6 °F 44% 30.27 in 10.0 mi Calm Calm - N/A   Overcast
2:35 PM 78.8 °F - 55.4 °F 44% 30.26 in 10.0 mi Calm Calm - N/A   Overcast
2:55 PM 78.8 °F - 55.4 °F 44% 30.25 in 7.0 mi NE 3.5 mph - N/A   Overcast
3:15 PM 80.6 °F 80.3 °F 53.6 °F 39% 30.24 in 10.0 mi Calm Calm - N/A   Scattered Clouds
3:35 PM 78.8 °F - 53.6 °F 42% 30.24 in 10.0 mi Calm Calm - N/A   Mostly Cloudy
3:55 PM 78.8 °F - 53.6 °F 42% 30.23 in 10.0 mi NE 5.8 mph - N/A   Overcast
4:15 PM 78.8 °F - 53.6 °F 42% 30.22 in 10.0 mi Calm Calm - N/A   Overcast
4:35 PM 82.4 °F - 51.8 °F 35% 30.22 in 10.0 mi SE 4.6 mph - N/A   Mostly Cloudy
4:55 PM 82.4 °F 81.4 °F 53.6 °F 37% 30.21 in 10.0 mi Calm Calm - N/A   Scattered Clouds
5:15 PM 82.4 °F 81.4 °F 53.6 °F 37% 30.21 in 10.0 mi ESE 6.9 mph - N/A   Mostly Cloudy
5:35 PM 78.8 °F - 55.4 °F 44% 30.22 in 10.0 mi NE 6.9 mph - N/A   Overcast
5:55 PM 78.8 °F - 55.4 °F 44% 30.22 in 10.0 mi ENE 3.5 mph - N/A   Overcast
6:15 PM 78.8 °F - 55.4 °F 44% 30.21 in 7.0 mi Calm Calm - N/A   Overcast
6:35 PM 78.8 °F - 53.6 °F 42% 30.22 in 10.0 mi Calm Calm - N/A   Mostly Cloudy
6:55 PM 77.0 °F - 55.4 °F 47% 30.22 in 7.0 mi Calm Calm - N/A   Mostly Cloudy
7:15 PM 77.0 °F - 55.4 °F 47% 30.22 in 7.0 mi Calm Calm - N/A   Scattered Clouds
7:35 PM 75.2 °F - 55.4 °F 50% 30.21 in 10.0 mi Calm Calm - N/A   Clear
7:55 PM 73.4 °F - 55.4 °F 53% 30.22 in 7.0 mi Calm Calm - N/A   Clear
8:15 PM 71.6 °F - 57.2 °F 60% 30.22 in 10.0 mi Calm Calm - N/A   Clear
8:35 PM 69.8 °F - 59.0 °F 68% 30.22 in 10.0 mi Calm Calm - N/A   Scattered Clouds
8:55 PM 69.8 °F - 57.2 °F 64% 30.23 in 10.0 mi Calm Calm - N/A   Scattered Clouds
9:15 PM 68.0 °F - 59.0 °F 73% 30.23 in 10.0 mi Calm Calm - N/A   Clear
9:35 PM 68.0 °F - 57.2 °F 68% 30.23 in 7.0 mi Calm Calm - N/A   Clear
9:55 PM 64.4 °F - 57.2 °F 77% 30.24 in 10.0 mi Calm Calm - N/A   Clear
10:15 PM 68.0 °F - 59.0 °F 73% 30.24 in 10.0 mi Calm Calm - N/A   Clear
10:35 PM 68.0 °F - 59.0 °F 73% 30.24 in 10.0 mi Calm Calm - N/A   Clear
10:55 PM 68.0 °F - 59.0 °F 73% 30.24 in 7.0 mi Calm Calm - N/A   Clear
11:15 PM 68.0 °F - 59.0 °F 73% 30.24 in 10.0 mi Calm Calm - N/A   Clear
11:35 PM 66.2 °F - 60.8 °F 83% 30.24 in 7.0 mi Calm Calm - N/A   Clear
11:55 PM 64.4 °F - 60.8 °F 88% 30.25 in 10.0 mi Calm Calm - N/A   Clear